contact:dominique.lefevre@mio.osupytheas.fr, maurice.libes@osupytheas.fr, didier.mallarino@osupytheas.fr
Project:EMSO http://www.emso-fr.org/EMSO-France
Depth: 2436.0 m
Title:EMSO Ligure Ouest : Data MII capteur CSTAR
DateTime,Latitude,Longitude,Instrument_Serial,Reference_Counts,Signal_Counts,Corrected_Signal_raw_counts,Calculated_Beam_c_inverse_meters,Internal_thermistor_counts
DateTime,Latitude,Longitude,Instrument_Serial,Reference_Counts,Signal_Counts,Corrected_Signal_raw_counts,Calculated_Beam_c_inverse_meters,Internal_thermistor_counts
2020-02-22T00:02:14,42.805,6.029,CST-1368DR,6739,9439,15217,0.104,551
2020-02-22T00:05:15,42.805,6.029,CST-1368DR,6739,9444,15225,0.101,551
2020-02-22T00:08:17,42.805,6.029,CST-1368DR,6739,9443,15223,0.102,551
2020-02-22T00:11:19,42.805,6.029,CST-1368DR,6739,9444,15225,0.101,551
2020-02-22T00:14:21,42.805,6.029,CST-1368DR,6739,9443,15223,0.102,551
2020-02-22T00:17:22,42.805,6.029,CST-1368DR,6739,9443,15223,0.102,551
2020-02-22T00:20:24,42.805,6.029,CST-1368DR,6739,9445,15227,0.101,551
2020-02-22T00:23:25,42.805,6.029,CST-1368DR,6739,9445,15227,0.101,551
2020-02-22T00:26:27,42.805,6.029,CST-1368DR,6739,9444,15226,0.101,551
2020-02-22T00:29:29,42.805,6.029,CST-1368DR,6739,9445,15226,0.101,551
2020-02-22T00:32:30,42.805,6.029,CST-1368DR,6739,9444,15225,0.101,551
2020-02-22T00:35:32,42.805,6.029,CST-1368DR,6739,9445,15226,0.101,551
2020-02-22T00:38:34,42.805,6.029,CST-1368DR,6739,9444,15225,0.101,551
2020-02-22T00:41:35,42.805,6.029,CST-1368DR,6739,9444,15225,0.101,551
2020-02-22T00:44:37,42.805,6.029,CST-1368DR,6739,9443,15224,0.102,551
2020-02-22T00:47:39,42.805,6.029,CST-1368DR,6739,9444,15225,0.101,551
2020-02-22T00:50:40,42.805,6.029,CST-1368DR,6739,9445,15226,0.101,551
2020-02-22T00:53:42,42.805,6.029,CST-1368DR,6739,9445,15226,0.101,551
2020-02-22T00:56:44,42.805,6.029,CST-1368DR,6739,9444,15226,0.101,551
2020-02-22T00:59:45,42.805,6.029,CST-1368DR,6739,9445,15227,0.101,551
2020-02-22T01:02:47,42.805,6.029,CST-1368DR,6739,9443,15224,0.102,551
2020-02-22T01:05:48,42.805,6.029,CST-1368DR,6739,9445,15227,0.101,551
2020-02-22T01:08:50,42.805,6.029,CST-1368DR,6739,9445,15226,0.101,551
2020-02-22T01:11:52,42.805,6.029,CST-1368DR,6739,9444,15225,0.101,551
2020-02-22T01:14:53,42.805,6.029,CST-1368DR,6739,9445,15226,0.101,551
2020-02-22T01:17:55,42.805,6.029,CST-1368DR,6739,9444,15225,0.101,550
2020-02-22T01:20:57,42.805,6.029,CST-1368DR,6739,9443,15224,0.102,551
2020-02-22T01:23:58,42.805,6.029,CST-1368DR,6739,9442,15222,0.102,551
2020-02-22T01:27:00,42.805,6.029,CST-1368DR,6739,9441,15220,0.103,550
2020-02-22T01:30:01,42.805,6.029,CST-1368DR,6739,9444,15226,0.101,551
2020-02-22T01:33:03,42.805,6.029,CST-1368DR,6739,9444,15225,0.101,551
2020-02-22T01:36:05,42.805,6.029,CST-1368DR,6739,9444,15225,0.101,551
2020-02-22T01:39:06,42.805,6.029,CST-1368DR,6739,9443,15223,0.102,551
2020-02-22T01:42:08,42.805,6.029,CST-1368DR,6739,9443,15223,0.102,551
2020-02-22T01:45:10,42.805,6.029,CST-1368DR,6739,9442,15221,0.102,551
2020-02-22T01:48:11,42.805,6.029,CST-1368DR,6739,9443,15224,0.102,551
2020-02-22T01:51:13,42.805,6.029,CST-1368DR,6739,9443,15224,0.102,551
2020-02-22T01:54:15,42.805,6.029,CST-1368DR,6739,9441,15221,0.102,551
2020-02-22T01:57:17,42.805,6.029,CST-1368DR,6739,9441,15221,0.102,551
2020-02-22T02:00:18,42.805,6.029,CST-1368DR,6739,9444,15224,0.102,551
2020-02-22T02:03:20,42.805,6.029,CST-1368DR,6739,9444,15225,0.101,551
2020-02-22T02:06:21,42.805,6.029,CST-1368DR,6739,9444,15225,0.101,551
2020-02-22T02:09:23,42.805,6.029,CST-1368DR,6739,9441,15221,0.102,551
2020-02-22T02:12:25,42.805,6.029,CST-1368DR,6739,9443,15223,0.102,551
2020-02-22T02:15:26,42.805,6.029,CST-1368DR,6739,9444,15224,0.102,551
2020-02-22T02:18:28,42.805,6.029,CST-1368DR,6739,9441,15220,0.103,551
2020-02-22T02:21:30,42.805,6.029,CST-1368DR,6739,9443,15223,0.102,551
2020-02-22T02:24:31,42.805,6.029,CST-1368DR,6739,9444,15224,0.102,551
2020-02-22T02:27:33,42.805,6.029,CST-1368DR,6739,9444,15225,0.101,551
2020-02-22T02:30:34,42.805,6.029,CST-1368DR,6739,9442,15222,0.102,551
2020-02-22T02:33:36,42.805,6.029,CST-1368DR,6739,9444,15225,0.101,551
2020-02-22T02:36:38,42.805,6.029,CST-1368DR,6739,9443,15223,0.102,551
2020-02-22T02:39:40,42.805,6.029,CST-1368DR,6739,9442,15222,0.102,551
2020-02-22T02:42:41,42.805,6.029,CST-1368DR,6739,9444,15225,0.101,551
2020-02-22T02:45:43,42.805,6.029,CST-1368DR,6739,9442,15222,0.102,551
2020-02-22T02:48:44,42.805,6.029,CST-1368DR,6739,9439,15217,0.104,551
2020-02-22T02:51:46,42.805,6.029,CST-1368DR,6739,9438,15216,0.104,551
2020-02-22T02:54:48,42.805,6.029,CST-1368DR,6739,9442,15222,0.102,551
2020-02-22T02:57:49,42.805,6.029,CST-1368DR,6739,9440,15219,0.103,551
2020-02-22T03:00:51,42.805,6.029,CST-1368DR,6739,9441,15220,0.103,550
2020-02-22T03:03:53,42.805,6.029,CST-1368DR,6739,9443,15224,0.102,550
2020-02-22T03:06:54,42.805,6.029,CST-1368DR,6739,9442,15222,0.102,551
2020-02-22T03:09:56,42.805,6.029,CST-1368DR,6739,9441,15220,0.103,551
2020-02-22T03:12:57,42.805,6.029,CST-1368DR,6739,9444,15224,0.102,551
2020-02-22T03:15:59,42.805,6.029,CST-1368DR,6739,9445,15226,0.101,551
2020-02-22T03:19:01,42.805,6.029,CST-1368DR,6739,9440,15218,0.103,551
2020-02-22T03:22:02,42.805,6.029,CST-1368DR,6739,9442,15222,0.102,551
2020-02-22T03:25:04,42.805,6.029,CST-1368DR,6739,9443,15224,0.102,551
2020-02-22T03:28:05,42.805,6.029,CST-1368DR,6739,9444,15224,0.102,551
2020-02-22T03:31:07,42.805,6.029,CST-1368DR,6739,9443,15223,0.102,551
2020-02-22T03:34:09,42.805,6.029,CST-1368DR,6739,9444,15224,0.102,551
2020-02-22T03:37:10,42.805,6.029,CST-1368DR,6739,9444,15225,0.101,551
2020-02-22T03:40:12,42.805,6.029,CST-1368DR,6739,9445,15226,0.101,551
2020-02-22T03:43:14,42.805,6.029,CST-1368DR,6739,9445,15227,0.101,551
2020-02-22T03:46:15,42.805,6.029,CST-1368DR,6738,9444,15228,0.101,551
2020-02-22T03:49:17,42.805,6.029,CST-1368DR,6739,9445,15226,0.101,551
2020-02-22T03:52:19,42.805,6.029,CST-1368DR,6739,9445,15227,0.101,551
2020-02-22T03:55:20,42.805,6.029,CST-1368DR,6739,9444,15225,0.101,551
2020-02-22T03:58:22,42.805,6.029,CST-1368DR,6739,9444,15225,0.101,551
2020-02-22T04:01:24,42.805,6.029,CST-1368DR,6738,9443,15226,0.101,551
2020-02-22T04:04:25,42.805,6.029,CST-1368DR,6738,9445,15229,0.100,551
2020-02-22T04:07:27,42.805,6.029,CST-1368DR,6739,9445,15227,0.101,551
2020-02-22T04:10:29,42.805,6.029,CST-1368DR,6738,9442,15224,0.102,551
2020-02-22T04:13:30,42.805,6.029,CST-1368DR,6738,9445,15229,0.100,551
2020-02-22T04:16:32,42.805,6.029,CST-1368DR,6738,9444,15227,0.101,551
2020-02-22T04:19:35,42.805,6.029,CST-1368DR,6738,9444,15227,0.101,550
2020-02-22T04:22:37,42.805,6.029,CST-1368DR,6738,9443,15225,0.101,551
2020-02-22T04:25:38,42.805,6.029,CST-1368DR,6738,9443,15226,0.101,551
2020-02-22T04:28:40,42.805,6.029,CST-1368DR,6738,9445,15229,0.100,551
2020-02-22T04:31:42,42.805,6.029,CST-1368DR,6738,9439,15219,0.103,551
2020-02-22T04:34:43,42.805,6.029,CST-1368DR,6738,9445,15228,0.101,551
2020-02-22T04:37:45,42.805,6.029,CST-1368DR,6738,9441,15223,0.102,551
2020-02-22T04:40:47,42.805,6.029,CST-1368DR,6738,9444,15227,0.101,551
2020-02-22T04:43:48,42.805,6.029,CST-1368DR,6738,9445,15229,0.100,551
2020-02-22T04:46:50,42.805,6.029,CST-1368DR,6738,9445,15229,0.100,551
2020-02-22T04:49:52,42.805,6.029,CST-1368DR,6738,9443,15226,0.101,551
2020-02-22T04:52:53,42.805,6.029,CST-1368DR,6738,9444,15227,0.101,551
2020-02-22T04:55:55,42.805,6.029,CST-1368DR,6738,9444,15227,0.101,551
2020-02-22T04:58:57,42.805,6.029,CST-1368DR,6738,9444,15228,0.101,551
2020-02-22T05:01:59,42.805,6.029,CST-1368DR,6738,9444,15228,0.101,551
2020-02-22T05:05:01,42.805,6.029,CST-1368DR,6738,9443,15225,0.101,551
2020-02-22T05:08:02,42.805,6.029,CST-1368DR,6738,9443,15226,0.101,551
2020-02-22T05:11:04,42.805,6.029,CST-1368DR,6738,9444,15227,0.101,551
2020-02-22T05:14:06,42.805,6.029,CST-1368DR,6738,9443,15226,0.101,550
2020-02-22T05:17:07,42.805,6.029,CST-1368DR,6738,9442,15224,0.102,551
2020-02-22T05:20:09,42.805,6.029,CST-1368DR,6738,9445,15229,0.100,551
2020-02-22T05:23:10,42.805,6.029,CST-1368DR,6738,9444,15228,0.101,551
2020-02-22T05:26:12,42.805,6.029,CST-1368DR,6738,9445,15229,0.100,551
2020-02-22T05:29:14,42.805,6.029,CST-1368DR,6738,9445,15229,0.100,551
2020-02-22T05:32:15,42.805,6.029,CST-1368DR,6738,9443,15226,0.101,551
2020-02-22T05:35:17,42.805,6.029,CST-1368DR,6738,9444,15227,0.101,551
2020-02-22T05:38:19,42.805,6.029,CST-1368DR,6738,9442,15225,0.101,551
2020-02-22T05:41:20,42.805,6.029,CST-1368DR,6738,9444,15227,0.101,551
2020-02-22T05:44:22,42.805,6.029,CST-1368DR,6738,9444,15227,0.101,551
2020-02-22T05:47:23,42.805,6.029,CST-1368DR,6738,9443,15226,0.101,551
2020-02-22T05:50:25,42.805,6.029,CST-1368DR,6738,9443,15226,0.101,551
2020-02-22T05:53:27,42.805,6.029,CST-1368DR,6738,9442,15225,0.101,551
2020-02-22T05:56:28,42.805,6.029,CST-1368DR,6738,9443,15225,0.101,551
2020-02-22T05:59:30,42.805,6.029,CST-1368DR,6738,9443,15225,0.101,551
2020-02-22T06:02:32,42.805,6.029,CST-1368DR,6738,9443,15225,0.101,551
2020-02-22T06:05:33,42.805,6.029,CST-1368DR,6738,9442,15225,0.101,551
2020-02-22T06:08:35,42.805,6.029,CST-1368DR,6738,9440,15221,0.102,551
2020-02-22T06:11:37,42.805,6.029,CST-1368DR,6738,9442,15224,0.102,551
2020-02-22T06:14:38,42.805,6.029,CST-1368DR,6738,9441,15222,0.102,551
2020-02-22T06:17:40,42.805,6.029,CST-1368DR,6738,9442,15225,0.101,551
2020-02-22T06:20:42,42.805,6.029,CST-1368DR,6738,9441,15223,0.102,551
2020-02-22T06:23:43,42.805,6.029,CST-1368DR,6738,9441,15222,0.102,551
2020-02-22T06:26:45,42.805,6.029,CST-1368DR,6738,9442,15225,0.101,551
2020-02-22T06:29:47,42.805,6.029,CST-1368DR,6738,9439,15219,0.103,551
2020-02-22T06:32:48,42.805,6.029,CST-1368DR,6738,9441,15223,0.102,551
2020-02-22T06:35:50,42.805,6.029,CST-1368DR,6738,9442,15225,0.101,551
2020-02-22T06:38:52,42.805,6.029,CST-1368DR,6738,9442,15224,0.102,551
2020-02-22T06:41:53,42.805,6.029,CST-1368DR,6738,9442,15225,0.101,551
2020-02-22T06:44:55,42.805,6.029,CST-1368DR,6738,9443,15225,0.101,551
2020-02-22T06:47:57,42.805,6.029,CST-1368DR,6738,9442,15224,0.102,551
2020-02-22T06:50:58,42.805,6.029,CST-1368DR,6738,9441,15222,0.102,551
2020-02-22T06:54:00,42.805,6.029,CST-1368DR,6738,9442,15223,0.102,550
2020-02-22T06:57:01,42.805,6.029,CST-1368DR,6738,9442,15225,0.101,551
2020-02-22T07:00:03,42.805,6.029,CST-1368DR,6738,9442,15225,0.101,551
2020-02-22T07:03:05,42.805,6.029,CST-1368DR,6738,9442,15224,0.102,551
2020-02-22T07:06:06,42.805,6.029,CST-1368DR,6738,9441,15223,0.102,551
2020-02-22T07:09:08,42.805,6.029,CST-1368DR,6738,9441,15222,0.102,551
2020-02-22T07:12:10,42.805,6.029,CST-1368DR,6738,9441,15223,0.102,551
2020-02-22T07:15:11,42.805,6.029,CST-1368DR,6738,9441,15222,0.102,551
2020-02-22T07:18:13,42.805,6.029,CST-1368DR,6738,9442,15224,0.102,551
2020-02-22T07:21:15,42.805,6.029,CST-1368DR,6738,9441,15222,0.102,551
2020-02-22T07:24:16,42.805,6.029,CST-1368DR,6738,9442,15224,0.102,551
2020-02-22T07:27:18,42.805,6.029,CST-1368DR,6738,9442,15224,0.102,551
2020-02-22T07:30:20,42.805,6.029,CST-1368DR,6738,9442,15224,0.102,551
2020-02-22T07:33:21,42.805,6.029,CST-1368DR,6738,9442,15224,0.102,551
2020-02-22T07:36:23,42.805,6.029,CST-1368DR,6738,9443,15226,0.101,551
2020-02-22T07:39:25,42.805,6.029,CST-1368DR,6738,9442,15225,0.101,551
2020-02-22T07:42:26,42.805,6.029,CST-1368DR,6738,9442,15225,0.101,550
2020-02-22T07:45:28,42.805,6.029,CST-1368DR,6738,9442,15225,0.101,550
2020-02-22T07:48:29,42.805,6.029,CST-1368DR,6738,9444,15227,0.101,551
2020-02-22T07:51:31,42.805,6.029,CST-1368DR,6738,9443,15226,0.101,551
2020-02-22T07:54:33,42.805,6.029,CST-1368DR,6738,9443,15225,0.101,551
2020-02-22T07:57:34,42.805,6.029,CST-1368DR,6738,9443,15225,0.101,551
2020-02-22T08:00:36,42.805,6.029,CST-1368DR,6738,9443,15226,0.101,551
2020-02-22T08:03:38,42.805,6.029,CST-1368DR,6738,9443,15226,0.101,551
2020-02-22T08:06:39,42.805,6.029,CST-1368DR,6738,9442,15224,0.102,551
2020-02-22T08:09:41,42.805,6.029,CST-1368DR,6738,9442,15225,0.101,551
2020-02-22T08:12:43,42.805,6.029,CST-1368DR,6738,9442,15224,0.102,551
2020-02-22T08:15:44,42.805,6.029,CST-1368DR,6738,9443,15225,0.101,551
2020-02-22T08:18:46,42.805,6.029,CST-1368DR,6737,9443,15228,0.101,551
2020-02-22T08:21:48,42.805,6.029,CST-1368DR,6738,9443,15226,0.101,551
2020-02-22T08:24:49,42.805,6.029,CST-1368DR,6737,9444,15229,0.100,551
2020-02-22T08:27:51,42.805,6.029,CST-1368DR,6738,9440,15221,0.102,551
2020-02-22T08:30:53,42.805,6.029,CST-1368DR,6738,9444,15227,0.101,551
2020-02-22T08:33:54,42.805,6.029,CST-1368DR,6737,9438,15220,0.103,551
2020-02-22T08:36:56,42.805,6.029,CST-1368DR,6737,9444,15229,0.100,550
2020-02-22T08:39:57,42.805,6.029,CST-1368DR,6738,9442,15224,0.102,551
2020-02-22T08:42:59,42.805,6.029,CST-1368DR,6738,9443,15226,0.101,551
2020-02-22T08:46:01,42.805,6.029,CST-1368DR,6738,9440,15221,0.102,551
2020-02-22T08:49:02,42.805,6.029,CST-1368DR,6737,9442,15227,0.101,551
2020-02-22T08:52:04,42.805,6.029,CST-1368DR,6737,9443,15228,0.101,551
2020-02-22T08:55:06,42.805,6.029,CST-1368DR,6738,9440,15220,0.103,551
2020-02-22T08:58:08,42.805,6.029,CST-1368DR,6737,9442,15225,0.101,551
2020-02-22T09:01:09,42.805,6.029,CST-1368DR,6737,9442,15226,0.101,551
2020-02-22T09:04:11,42.805,6.029,CST-1368DR,6737,9442,15227,0.101,551
2020-02-22T09:07:12,42.805,6.029,CST-1368DR,6737,9442,15226,0.101,551
2020-02-22T09:10:14,42.805,6.029,CST-1368DR,6737,9443,15227,0.101,551
2020-02-22T09:13:16,42.805,6.029,CST-1368DR,6737,9442,15225,0.101,551
2020-02-22T09:16:17,42.805,6.029,CST-1368DR,6737,9442,15225,0.101,551
2020-02-22T09:19:19,42.805,6.029,CST-1368DR,6737,9443,15228,0.101,551
2020-02-22T09:22:21,42.805,6.029,CST-1368DR,6737,9442,15225,0.101,551
2020-02-22T09:25:22,42.805,6.029,CST-1368DR,6737,9443,15227,0.101,551
2020-02-22T09:28:24,42.805,6.029,CST-1368DR,6737,9435,15214,0.104,551
2020-02-22T09:31:26,42.805,6.029,CST-1368DR,6737,9443,15228,0.101,551
2020-02-22T09:34:28,42.805,6.029,CST-1368DR,6737,9443,15227,0.101,551
2020-02-22T09:37:29,42.805,6.029,CST-1368DR,6737,9440,15223,0.102,551
2020-02-22T09:40:31,42.805,6.029,CST-1368DR,6737,9443,15227,0.101,551
2020-02-22T09:43:33,42.805,6.029,CST-1368DR,6737,9443,15227,0.101,551
2020-02-22T09:46:34,42.805,6.029,CST-1368DR,6737,9443,15227,0.101,551
2020-02-22T09:49:36,42.805,6.029,CST-1368DR,6737,9442,15226,0.101,551
2020-02-22T09:52:38,42.805,6.029,CST-1368DR,6737,9442,15226,0.101,551
2020-02-22T09:55:39,42.805,6.029,CST-1368DR,6737,9442,15226,0.101,551
2020-02-22T09:58:41,42.805,6.029,CST-1368DR,6737,9442,15227,0.101,551
2020-02-22T10:01:43,42.805,6.029,CST-1368DR,6737,9442,15227,0.101,551
2020-02-22T10:04:44,42.805,6.029,CST-1368DR,6737,9441,15225,0.101,551
2020-02-22T10:07:46,42.805,6.029,CST-1368DR,6737,9441,15224,0.102,551
2020-02-22T10:10:48,42.805,6.029,CST-1368DR,6737,9441,15224,0.102,551
2020-02-22T10:13:49,42.805,6.029,CST-1368DR,6737,9442,15226,0.101,551
2020-02-22T10:16:51,42.805,6.029,CST-1368DR,6737,9442,15226,0.101,551
2020-02-22T10:19:53,42.805,6.029,CST-1368DR,6737,9440,15223,0.102,551
2020-02-22T10:22:54,42.805,6.029,CST-1368DR,6737,9442,15225,0.101,551
2020-02-22T10:25:56,42.805,6.029,CST-1368DR,6737,9441,15225,0.101,551
2020-02-22T10:28:57,42.805,6.029,CST-1368DR,6737,9440,15223,0.102,550
2020-02-22T10:31:59,42.805,6.029,CST-1368DR,6737,9441,15224,0.102,551
2020-02-22T10:35:01,42.805,6.029,CST-1368DR,6737,9442,15227,0.101,551
2020-02-22T10:38:02,42.805,6.029,CST-1368DR,6737,9441,15225,0.101,551
2020-02-22T10:41:04,42.805,6.029,CST-1368DR,6737,9441,15225,0.101,551
2020-02-22T10:44:06,42.805,6.029,CST-1368DR,6737,9441,15225,0.101,551
2020-02-22T10:47:07,42.805,6.029,CST-1368DR,6737,9442,15226,0.101,551
2020-02-22T10:50:09,42.805,6.029,CST-1368DR,6737,9442,15226,0.101,551
2020-02-22T10:53:11,42.805,6.029,CST-1368DR,6737,9442,15226,0.101,551
2020-02-22T10:56:12,42.805,6.029,CST-1368DR,6737,9441,15225,0.101,551
2020-02-22T10:59:14,42.805,6.029,CST-1368DR,6737,9442,15226,0.101,551
2020-02-22T11:02:15,42.805,6.029,CST-1368DR,6737,9442,15226,0.101,551
2020-02-22T11:05:17,42.805,6.029,CST-1368DR,6737,9442,15225,0.101,551
2020-02-22T11:08:19,42.805,6.029,CST-1368DR,6737,9440,15223,0.102,551
2020-02-22T11:11:21,42.805,6.029,CST-1368DR,6737,9442,15227,0.101,551
2020-02-22T11:14:22,42.805,6.029,CST-1368DR,6737,9441,15225,0.101,551
2020-02-22T11:17:24,42.805,6.029,CST-1368DR,6737,9442,15226,0.101,551
2020-02-22T11:20:26,42.805,6.029,CST-1368DR,6737,9442,15225,0.101,551
2020-02-22T11:23:27,42.805,6.029,CST-1368DR,6737,9442,15227,0.101,551
2020-02-22T11:26:29,42.805,6.029,CST-1368DR,6737,9440,15223,0.102,551
2020-02-22T11:29:31,42.805,6.029,CST-1368DR,6737,9441,15224,0.102,551
2020-02-22T11:32:32,42.805,6.029,CST-1368DR,6737,9441,15225,0.101,551
2020-02-22T11:35:34,42.805,6.029,CST-1368DR,6737,9442,15226,0.101,551
2020-02-22T11:38:35,42.805,6.029,CST-1368DR,6737,9441,15225,0.101,550
2020-02-22T11:41:37,42.805,6.029,CST-1368DR,6737,9442,15225,0.101,551
2020-02-22T11:44:39,42.805,6.029,CST-1368DR,6737,9442,15225,0.101,551
2020-02-22T11:47:40,42.805,6.029,CST-1368DR,6737,9443,15228,0.101,550
2020-02-22T11:50:42,42.805,6.029,CST-1368DR,6737,9442,15226,0.101,551
2020-02-22T11:53:44,42.805,6.029,CST-1368DR,6737,9442,15226,0.101,551
2020-02-22T11:56:46,42.805,6.029,CST-1368DR,6737,9442,15226,0.101,550
2020-02-22T11:59:47,42.805,6.029,CST-1368DR,6737,9442,15226,0.101,551
2020-02-22T12:02:49,42.805,6.029,CST-1368DR,6737,9440,15223,0.102,550
2020-02-22T12:05:50,42.805,6.029,CST-1368DR,6737,9441,15225,0.101,551
2020-02-22T12:08:52,42.805,6.029,CST-1368DR,6737,9441,15224,0.102,551
2020-02-22T12:11:54,42.805,6.029,CST-1368DR,6737,9441,15225,0.101,551
2020-02-22T12:14:55,42.805,6.029,CST-1368DR,6737,9441,15225,0.101,551
2020-02-22T12:17:57,42.805,6.029,CST-1368DR,6737,9441,15225,0.101,551
2020-02-22T12:20:59,42.805,6.029,CST-1368DR,6737,9442,15225,0.101,551
2020-02-22T12:24:00,42.805,6.029,CST-1368DR,6737,9442,15226,0.101,551
2020-02-22T12:27:02,42.805,6.029,CST-1368DR,6737,9440,15223,0.102,551
2020-02-22T12:30:04,42.805,6.029,CST-1368DR,6737,9442,15226,0.101,551
2020-02-22T12:33:05,42.805,6.029,CST-1368DR,6737,9442,15225,0.101,551
2020-02-22T12:36:07,42.805,6.029,CST-1368DR,6737,9441,15225,0.101,551
2020-02-22T12:39:08,42.805,6.029,CST-1368DR,6737,9436,15217,0.104,551
2020-02-22T12:42:10,42.805,6.029,CST-1368DR,6737,9441,15224,0.102,551
2020-02-22T12:45:12,42.805,6.029,CST-1368DR,6737,9442,15226,0.101,551
2020-02-22T12:48:13,42.805,6.029,CST-1368DR,6737,9441,15225,0.101,551
2020-02-22T12:51:15,42.805,6.029,CST-1368DR,6737,9441,15225,0.101,551
2020-02-22T12:54:17,42.805,6.029,CST-1368DR,6737,9441,15224,0.102,551
2020-02-22T12:57:18,42.805,6.029,CST-1368DR,6736,9441,15226,0.101,551
2020-02-22T13:00:20,42.805,6.029,CST-1368DR,6736,9440,15225,0.101,551
2020-02-22T13:03:21,42.805,6.029,CST-1368DR,6736,9440,15226,0.101,551
2020-02-22T13:06:23,42.805,6.029,CST-1368DR,6736,9441,15227,0.101,551
2020-02-22T13:09:25,42.805,6.029,CST-1368DR,6736,9441,15227,0.101,551
2020-02-22T13:12:26,42.805,6.029,CST-1368DR,6736,9440,15226,0.101,551
2020-02-22T13:15:28,42.805,6.029,CST-1368DR,6736,9441,15226,0.101,551
2020-02-22T13:18:30,42.805,6.029,CST-1368DR,6736,9441,15227,0.101,551
2020-02-22T13:21:31,42.805,6.029,CST-1368DR,6736,9442,15228,0.101,551
2020-02-22T13:24:33,42.805,6.029,CST-1368DR,6736,9441,15226,0.101,551
2020-02-22T13:27:34,42.805,6.029,CST-1368DR,6736,9442,15228,0.101,551
2020-02-22T13:30:36,42.805,6.029,CST-1368DR,6736,9441,15227,0.101,551
2020-02-22T13:33:38,42.805,6.029,CST-1368DR,6736,9441,15226,0.101,551
2020-02-22T13:36:40,42.805,6.029,CST-1368DR,6737,9442,15226,0.101,551
2020-02-22T13:39:41,42.805,6.029,CST-1368DR,6736,9441,15227,0.101,551
2020-02-22T13:42:43,42.805,6.029,CST-1368DR,6736,9441,15227,0.101,551
2020-02-22T13:45:44,42.805,6.029,CST-1368DR,6736,9441,15226,0.101,551
2020-02-22T13:48:46,42.805,6.029,CST-1368DR,6736,9442,15228,0.101,551
2020-02-22T13:51:48,42.805,6.029,CST-1368DR,6736,9442,15229,0.100,551
2020-02-22T13:54:49,42.805,6.029,CST-1368DR,6736,9442,15228,0.101,551
2020-02-22T13:57:51,42.805,6.029,CST-1368DR,6736,9439,15224,0.102,551
2020-02-22T14:00:53,42.805,6.029,CST-1368DR,6736,9442,15229,0.100,551
2020-02-22T14:03:54,42.805,6.029,CST-1368DR,6736,9442,15228,0.101,550
2020-02-22T14:06:56,42.805,6.029,CST-1368DR,6736,9442,15228,0.101,551
2020-02-22T14:09:57,42.805,6.029,CST-1368DR,6736,9442,15228,0.101,551
2020-02-22T14:12:59,42.805,6.029,CST-1368DR,6736,9442,15228,0.101,551
2020-02-22T14:16:01,42.805,6.029,CST-1368DR,6736,9442,15228,0.101,551
2020-02-22T14:19:02,42.805,6.029,CST-1368DR,6736,9442,15228,0.101,551
2020-02-22T14:22:04,42.805,6.029,CST-1368DR,6736,9440,15224,0.102,551
2020-02-22T14:25:06,42.805,6.029,CST-1368DR,6736,9442,15228,0.101,551
2020-02-22T14:28:07,42.805,6.029,CST-1368DR,6736,9441,15226,0.101,551
2020-02-22T14:31:09,42.805,6.029,CST-1368DR,6736,9441,15226,0.101,551
2020-02-22T14:34:11,42.805,6.029,CST-1368DR,6736,9441,15226,0.101,550
2020-02-22T14:37:12,42.805,6.029,CST-1368DR,6736,9440,15226,0.101,551
2020-02-22T14:40:14,42.805,6.029,CST-1368DR,6736,9434,15215,0.104,550
2020-02-22T14:43:16,42.805,6.029,CST-1368DR,6736,9440,15225,0.101,551
2020-02-22T14:46:17,42.805,6.029,CST-1368DR,6736,9440,15225,0.101,551
2020-02-22T14:49:19,42.805,6.029,CST-1368DR,6736,9440,15225,0.101,551
2020-02-22T14:52:20,42.805,6.029,CST-1368DR,6736,9439,15223,0.102,551
2020-02-22T14:55:22,42.805,6.029,CST-1368DR,6736,9437,15220,0.103,551
2020-02-22T14:58:24,42.805,6.029,CST-1368DR,6736,9439,15223,0.102,551
2020-02-22T15:01:26,42.805,6.029,CST-1368DR,6736,9440,15225,0.101,551
2020-02-22T15:04:27,42.805,6.029,CST-1368DR,6736,9439,15224,0.102,551
2020-02-22T15:07:29,42.805,6.029,CST-1368DR,6736,9439,15223,0.102,551
2020-02-22T15:10:31,42.805,6.029,CST-1368DR,6736,9439,15223,0.102,551
2020-02-22T15:13:32,42.805,6.029,CST-1368DR,6736,9440,15225,0.101,551
2020-02-22T15:16:34,42.805,6.029,CST-1368DR,6736,9438,15221,0.102,550
2020-02-22T15:19:35,42.805,6.029,CST-1368DR,6736,9440,15225,0.101,551
2020-02-22T15:22:37,42.805,6.029,CST-1368DR,6736,9439,15223,0.102,551
2020-02-22T15:25:39,42.805,6.029,CST-1368DR,6736,9438,15222,0.102,551
2020-02-22T15:28:40,42.805,6.029,CST-1368DR,6736,9438,15222,0.102,551
2020-02-22T15:31:42,42.805,6.029,CST-1368DR,6736,9440,15225,0.101,551
2020-02-22T15:34:44,42.805,6.029,CST-1368DR,6736,9438,15222,0.102,551
2020-02-22T15:37:45,42.805,6.029,CST-1368DR,6736,9437,15221,0.102,551
2020-02-22T15:40:47,42.805,6.029,CST-1368DR,6736,9438,15222,0.102,551
2020-02-22T15:43:49,42.805,6.029,CST-1368DR,6736,9438,15221,0.102,551
2020-02-22T15:46:50,42.805,6.029,CST-1368DR,6736,9439,15223,0.102,551
2020-02-22T15:49:52,42.805,6.029,CST-1368DR,6736,9437,15220,0.103,551
2020-02-22T15:52:54,42.805,6.029,CST-1368DR,6736,9438,15222,0.102,551
2020-02-22T15:55:55,42.805,6.029,CST-1368DR,6736,9438,15222,0.102,551
2020-02-22T15:58:57,42.805,6.029,CST-1368DR,6736,9438,15221,0.102,551
2020-02-22T16:01:58,42.805,6.029,CST-1368DR,6736,9438,15222,0.102,551
2020-02-22T16:05:00,42.805,6.029,CST-1368DR,6736,9438,15222,0.102,551
2020-02-22T16:08:02,42.805,6.029,CST-1368DR,6736,9439,15223,0.102,551
2020-02-22T16:11:03,42.805,6.029,CST-1368DR,6736,9438,15222,0.102,551
2020-02-22T16:14:05,42.805,6.029,CST-1368DR,6736,9436,15218,0.103,551
2020-02-22T16:17:07,42.805,6.029,CST-1368DR,6736,9439,15223,0.102,551
2020-02-22T16:20:08,42.805,6.029,CST-1368DR,6736,9439,15223,0.102,551
2020-02-22T16:23:10,42.805,6.029,CST-1368DR,6736,9439,15224,0.102,551
2020-02-22T16:26:11,42.805,6.029,CST-1368DR,6736,9438,15222,0.102,551
2020-02-22T16:29:13,42.805,6.029,CST-1368DR,6736,9440,15224,0.102,551
2020-02-22T16:32:15,42.805,6.029,CST-1368DR,6736,9439,15223,0.102,551
2020-02-22T16:35:16,42.805,6.029,CST-1368DR,6736,9439,15224,0.102,550
2020-02-22T16:38:18,42.805,6.029,CST-1368DR,6736,9437,15220,0.103,551
2020-02-22T16:41:20,42.805,6.029,CST-1368DR,6736,9439,15223,0.102,551
2020-02-22T16:44:21,42.805,6.029,CST-1368DR,6736,9435,15217,0.104,551
2020-02-22T16:47:23,42.805,6.029,CST-1368DR,6736,9434,15215,0.104,551
2020-02-22T16:50:25,42.805,6.029,CST-1368DR,6735,9438,15223,0.102,551
2020-02-22T16:53:26,42.805,6.029,CST-1368DR,6736,9439,15223,0.102,551